| time (UTC) | temp F | wind direction | speed knots | gust knots | rain 1hr in | rain 24hr in | rain mn in | humidity % | barometer mb |
| 20260906112929 | 76 | 339 | 2.6 | 2.6 | 0.00 | 0.00 | 0.00 | 91 | 1012.2 |
| 20260906112425 | 76 | 43 | 2.6 | 4.3 | 0.00 | 0.00 | 0.00 | 91 | 1012.3 |
| 20260906111920 | 76 | 23 | 1.7 | 2.6 | 0.00 | 0.00 | 0.00 | 91 | 1012.3 |
| 20260906111420 | 76 | 36 | 2.6 | 2.6 | 0.00 | 0.00 | 0.00 | 91 | 1012.1 |
| 20260906110914 | 76 | 66 | 2.6 | 4.3 | 0.00 | 0.00 | 0.00 | 91 | 1012.0 |
| 20260906110409 | 76 | 332 | 2.6 | 4.3 | 0.00 | 0.00 | 0.00 | 90 | 1012.0 |
| 20260906105909 | 76 | 6 | 2.6 | 4.3 | 0.00 | 0.00 | 0.00 | 90 | 1012.0 |
| 20260906105405 | 77 | 34 | 0.9 | 1.7 | 0.00 | 0.00 | 0.00 | 90 | 1011.9 |
| 20260906104901 | 77 | 40 | 1.7 | 1.7 | 0.00 | 0.00 | 0.00 | 90 | 1012.0 |
| 20260906104359 | 77 | 52 | 4.3 | 5.2 | 0.00 | 0.00 | 0.00 | 90 | 1011.9 |
| 20260906103857 | 77 | 6 | 1.7 | 1.7 | 0.00 | 0.00 | 0.00 | 90 | 1011.6 |
| 20260906103356 | 77 | 41 | 2.6 | 2.6 | 0.00 | 0.00 | 0.00 | 90 | 1011.7 |
| 20260906102852 | 77 | 37 | 2.6 | 4.3 | 0.00 | 0.00 | 0.00 | 90 | 1011.7 |
| 20260906102352 | 77 | 37 | 4.3 | 5.2 | 0.00 | 0.00 | 0.00 | 90 | 1011.7 |
| 20260906101846 | 77 | 19 | 2.6 | 2.6 | 0.00 | 0.00 | 0.00 | 89 | 1011.7 |
| 20260906101342 | 77 | 49 | 0.0 | 0.0 | 0.00 | 0.00 | 0.00 | 89 | 1011.5 |
| 20260906100837 | 77 | 13 | 2.6 | 2.6 | 0.00 | 0.00 | 0.00 | 89 | 1011.2 |
| 20260906100336 | 77 | 23 | 2.6 | 2.6 | 0.00 | 0.00 | 0.00 | 89 | 1011.3 |
| 20260906095831 | 77 | 3 | 3.5 | 5.2 | 0.00 | 0.00 | 0.00 | 89 | 1011.2 |
| 20260906095327 | 78 | 30 | 5.2 | 7.0 | 0.00 | 0.00 | 0.00 | 89 | 1011.3 |
| 20260906094826 | 78 | 41 | 3.5 | 4.3 | 0.00 | 0.00 | 0.00 | 89 | 1011.2 |
| 20260906094321 | 78 | 2 | 1.7 | 1.7 | 0.00 | 0.00 | 0.00 | 89 | 1011.3 |
| 20260906093817 | 78 | 22 | 0.9 | 1.7 | 0.00 | 0.00 | 0.00 | 88 | 1011.5 |
| 20260906093313 | 78 | 23 | 0.9 | 1.7 | 0.00 | 0.00 | 0.00 | 88 | 1011.3 |
| 20260906092807 | 78 | 58 | 1.7 | 1.7 | 0.00 | 0.00 | 0.00 | 88 | 1011.3 |
| 20260906092301 | 78 | 13 | 3.5 | 4.3 | 0.00 | 0.00 | 0.00 | 88 | 1011.2 |
| 20260906091757 | 78 | 17 | 3.5 | 4.3 | 0.00 | 0.00 | 0.00 | 88 | 1011.3 |
| 20260906091253 | 78 | 35 | 2.6 | 4.3 | 0.00 | 0.00 | 0.00 | 87 | 1011.1 |
| 20260906090749 | 79 | 42 | 0.9 | 1.7 | 0.00 | 0.00 | 0.00 | 87 | 1011.0 |
| 20260906090248 | 79 | 33 | 2.6 | 2.6 | 0.00 | 0.00 | 0.00 | 87 | 1011.2 |
| 20260906085748 | 79 | 12 | 2.6 | 2.6 | 0.00 | 0.00 | 0.00 | 86 | 1011.0 |
| 20260906085242 | 79 | 23 | 5.2 | 5.2 | 0.00 | 0.00 | 0.00 | 86 | 1011.2 |
| 20260906084736 | 79 | 36 | 1.7 | 1.7 | 0.00 | 0.00 | 0.00 | 86 | 1011.1 |
| 20260906084231 | 79 | 13 | 1.7 | 1.7 | 0.00 | 0.00 | 0.00 | 86 | 1011.2 |
| 20260906083726 | 79 | 48 | 0.9 | 1.7 | 0.00 | 0.00 | 0.00 | 86 | 1011.2 |
| 20260906083220 | 79 | 35 | 2.6 | 2.6 | 0.00 | 0.00 | 0.00 | 85 | 1010.9 |
| 20260906082715 | 79 | 44 | 3.5 | 4.3 | 0.00 | 0.00 | 0.00 | 85 | 1011.0 |
| 20260906082205 | 79 | 40 | 2.6 | 2.6 | 0.00 | 0.00 | 0.00 | 85 | 1011.1 |
| 20260906081701 | 80 | 2 | 1.7 | 2.6 | 0.00 | 0.00 | 0.00 | 84 | 1011.2 |
| 20260906081150 | 80 | 352 | 2.6 | 2.6 | 0.00 | 0.00 | 0.00 | 84 | 1011.1 |
| 20260906080647 | 80 | 16 | 1.7 | 1.7 | 0.00 | 0.00 | 0.00 | 83 | 1010.9 |
| 20260906080142 | 80 | 20 | 1.7 | 1.7 | 0.00 | 0.00 | 0.00 | 83 | 1011.0 |
| 20260906075636 | 80 | 19 | 1.7 | 1.7 | 0.00 | 0.00 | 0.00 | 83 | 1010.9 |
| 20260906075131 | 80 | 38 | 1.7 | 1.7 | 0.00 | 0.00 | 0.00 | 83 | 1010.9 |
| 20260906074626 | 80 | 36 | 0.9 | 1.7 | 0.00 | 0.00 | 0.00 | 83 | 1010.9 |
| 20260906074125 | 80 | 22 | 0.9 | 0.9 | 0.00 | 0.00 | 0.00 | 82 | 1010.8 |
| 20260906073620 | 80 | 7 | 0.9 | 1.7 | 0.00 | 0.00 | 0.00 | 82 | 1011.0 |
| 20260906073116 | 80 | 18 | 1.7 | 1.7 | 0.00 | 0.00 | 0.00 | 82 | 1010.9 |
| 20260906072611 | 80 | 355 | 1.7 | 1.7 | 0.00 | 0.00 | 0.00 | 82 | 1010.9 |
| 20260906072106 | 80 | 26 | 0.0 | 0.0 | 0.00 | 0.00 | 0.00 | 82 | 1010.9 |
| 20260906071602 | 81 | 42 | 0.9 | 0.9 | 0.00 | 0.00 | 0.00 | 82 | 1011.0 |
| 20260906071057 | 81 | 352 | 0.9 | 1.7 | 0.00 | 0.00 | 0.00 | 81 | 1010.9 |
| 20260906070554 | 81 | 358 | 1.7 | 1.7 | 0.00 | 0.00 | 0.00 | 80 | 1011.0 |
| 20260906070049 | 81 | 63 | 0.0 | 0.0 | 0.00 | 0.00 | 0.00 | 79 | 1010.8 |
| 20260906065548 | 81 | 61 | 0.9 | 0.9 | 0.00 | 0.00 | 0.00 | 79 | 1010.9 |
| 20260906065044 | 81 | 84 | 0.0 | 0.9 | 0.00 | 0.00 | 0.00 | 80 | 1010.9 |
| 20260906064539 | 81 | 92 | 0.9 | 1.7 | 0.00 | 0.00 | 0.00 | 80 | 1010.9 |
| 20260906064029 | 81 | 59 | 0.0 | 0.0 | 0.00 | 0.00 | 0.00 | 80 | 1010.9 |
| 20260906063524 | 81 | 34 | 1.7 | 2.6 | 0.00 | 0.00 | 0.00 | 80 | 1011.0 |
| 20260906063020 | 81 | 70 | 0.0 | 0.9 | 0.00 | 0.00 | 0.00 | 81 | 1011.1 |
| 20260906062515 | 81 | 62 | 1.7 | 1.7 | 0.00 | 0.00 | 0.00 | 80 | 1011.1 |
| 20260906062010 | 81 | 46 | 1.7 | 1.7 | 0.00 | 0.00 | 0.00 | 80 | 1011.1 |
| 20260906061506 | 82 | 41 | 2.6 | 2.6 | 0.00 | 0.00 | 0.00 | 80 | 1011.3 |
| 20260906061005 | 82 | 57 | 3.5 | 5.2 | 0.00 | 0.00 | 0.00 | 79 | 1011.1 |
| 20260906060502 | 82 | 43 | 1.7 | 1.7 | 0.00 | 0.00 | 0.00 | 78 | 1011.6 |
| 20260906055953 | 82 | 45 | 0.0 | 0.9 | 0.00 | 0.00 | 0.00 | 75 | 1011.4 |
| 20260906055448 | 82 | 41 | 1.7 | 1.7 | 0.00 | 0.00 | 0.00 | 74 | 1011.5 |
| 20260906054944 | 83 | 357 | 2.6 | 2.6 | 0.00 | 0.00 | 0.00 | 73 | 1011.5 |
| 20260906054443 | 83 | 13 | 1.7 | 1.7 | 0.00 | 0.00 | 0.00 | 72 | 1011.3 |
| 20260906053939 | 83 | 67 | 0.0 | 0.0 | 0.00 | 0.00 | 0.00 | 72 | 1011.4 |
| 20260906053436 | 83 | 90 | 0.0 | 0.9 | 0.00 | 0.00 | 0.00 | 72 | 1011.4 |
| 20260906052931 | 83 | 105 | 0.9 | 1.7 | 0.00 | 0.00 | 0.00 | 72 | 1011.4 |
| 20260906052427 | 83 | 105 | 0.9 | 0.9 | 0.00 | 0.00 | 0.00 | 72 | 1011.4 |
| 20260906051924 | 83 | 138 | 0.9 | 0.9 | 0.00 | 0.00 | 0.00 | 72 | 1011.3 |
| 20260906051423 | 83 | 78 | 1.7 | 1.7 | 0.00 | 0.00 | 0.00 | 72 | 1011.4 |
| 20260906050919 | 83 | 85 | 0.9 | 1.7 | 0.00 | 0.00 | 0.00 | 72 | 1011.6 |
| 20260906050414 | 84 | 120 | 2.6 | 4.3 | 0.00 | 0.00 | 0.00 | 72 | 1011.5 |
| 20260906045913 | 84 | 190 | 0.0 | 0.9 | 0.00 | 0.00 | 0.00 | 73 | 1011.4 |
| 20260906045412 | 85 | 134 | 3.5 | 5.2 | 0.00 | 0.00 | 0.00 | 74 | 1011.5 |
| 20260906044908 | 85 | 347 | 0.0 | 0.9 | 0.00 | 0.00 | 0.00 | 75 | 1011.2 |
| 20260906044403 | 85 | 74 | 0.0 | 0.0 | 0.00 | 0.00 | 0.00 | 75 | 1011.1 |
| 20260906043859 | 85 | 79 | 0.0 | 0.0 | 0.00 | 0.00 | 0.00 | 75 | 1011.1 |
| 20260906043354 | 85 | 36 | 0.0 | 0.9 | 0.00 | 0.00 | 0.00 | 75 | 1011.0 |
| 20260906042849 | 85 | 44 | 1.7 | 1.7 | 0.00 | 0.00 | 0.00 | 75 | 1010.8 |
| 20260906042348 | 85 | 28 | 0.0 | 0.9 | 0.00 | 0.00 | 0.00 | 74 | 1010.9 |
| 20260906041843 | 85 | 48 | 0.0 | 0.0 | 0.00 | 0.00 | 0.00 | 74 | 1010.8 |
| 20260906041340 | 86 | 44 | 0.0 | 0.0 | 0.00 | 0.00 | 0.00 | 73 | 1010.8 |
| 20260906040839 | 86 | 86 | 0.9 | 0.9 | 0.00 | 0.00 | 0.00 | 73 | 1010.9 |
| 20260906040334 | 86 | 67 | 0.9 | 0.9 | 0.00 | 0.00 | 0.00 | 72 | 1010.8 |
| 20260906035830 | 86 | 43 | 0.0 | 0.0 | 0.00 | 0.00 | 0.00 | 72 | 1010.9 |
| 20260906035325 | 86 | 49 | 0.0 | 0.0 | 0.00 | 0.00 | 0.00 | 72 | 1010.7 |
| 20260906034821 | 86 | 58 | 0.0 | 0.0 | 0.00 | 0.00 | 0.00 | 71 | 1010.7 |
| 20260906034320 | 86 | 61 | 0.0 | 0.0 | 0.00 | 0.00 | 0.00 | 72 | 1010.9 |
| 20260906033817 | 86 | 58 | 0.9 | 0.9 | 0.00 | 0.00 | 0.00 | 72 | 1010.8 |
| 20260906033315 | 86 | 46 | 0.0 | 0.9 | 0.00 | 0.00 | 0.00 | 72 | 1010.8 |
| 20260906032812 | 86 | 73 | 0.9 | 0.9 | 0.00 | 0.00 | 0.00 | 72 | 1010.9 |
| 20260906032307 | 87 | 61 | 0.9 | 0.9 | 0.00 | 0.00 | 0.00 | 71 | 1010.7 |
| 20260906031802 | 87 | 69 | 0.9 | 1.7 | 0.00 | 0.00 | 0.00 | 71 | 1010.7 |
| 20260906031253 | 87 | 73 | 0.9 | 0.9 | 0.00 | 0.00 | 0.00 | 71 | 1010.5 |
| 20260906030753 | 87 | 49 | 0.9 | 0.9 | 0.00 | 0.00 | 0.00 | 70 | 1010.5 |
| 20260906030248 | 87 | 62 | 0.9 | 1.7 | 0.00 | 0.00 | 0.00 | 70 | 1010.7 |
| 20260906025747 | 88 | 60 | 1.7 | 1.7 | 0.00 | 0.00 | 0.00 | 69 | 1010.7 |
| 20260906025247 | 88 | 52 | 0.0 | 0.0 | 0.00 | 0.00 | 0.00 | 69 | 1010.3 |
| 20260906024746 | 88 | 53 | 0.0 | 0.0 | 0.00 | 0.00 | 0.00 | 69 | 1010.2 |
| 20260906024240 | 88 | 53 | 0.0 | 0.0 | 0.00 | 0.00 | 0.00 | 69 | 1010.4 |
| 20260906023735 | 88 | 63 | 0.0 | 0.9 | 0.00 | 0.00 | 0.00 | 68 | 1010.2 |
| 20260906023230 | 88 | 65 | 0.9 | 0.9 | 0.00 | 0.00 | 0.00 | 68 | 1010.1 |
| 20260906022726 | 88 | 39 | 0.0 | 0.9 | 0.00 | 0.00 | 0.00 | 67 | 1010.1 |
| 20260906022221 | 88 | 52 | 0.9 | 0.9 | 0.00 | 0.00 | 0.00 | 67 | 1009.8 |
| 20260906021717 | 89 | 59 | 0.0 | 0.9 | 0.00 | 0.00 | 0.00 | 67 | 1009.8 |
| 20260906021216 | 89 | 64 | 1.7 | 1.7 | 0.00 | 0.00 | 0.00 | 66 | 1009.7 |
| 20260906020711 | 89 | 43 | 0.9 | 0.9 | 0.00 | 0.00 | 0.00 | 66 | 1009.9 |
| 20260906020206 | 89 | 67 | 0.0 | 0.0 | 0.00 | 0.00 | 0.00 | 65 | 1009.9 |
| 20260906015706 | 89 | 51 | 0.9 | 1.7 | 0.00 | 0.00 | 0.00 | 64 | 1009.9 |
| 20260906015158 | 90 | 58 | 2.6 | 2.6 | 0.00 | 0.00 | 0.00 | 63 | 1009.9 |
| 20260906014653 | 90 | 71 | 0.0 | 0.0 | 0.00 | 0.00 | 0.00 | 63 | 1010.0 |
| 20260906014149 | 90 | 56 | 1.7 | 1.7 | 0.00 | 0.00 | 0.00 | 62 | 1009.9 |
| 20260906013644 | 90 | 41 | 0.0 | 0.0 | 0.00 | 0.00 | 0.00 | 62 | 1009.8 |
| 20260906013140 | 90 | 56 | 0.9 | 1.7 | 0.00 | 0.00 | 0.00 | 61 | 1009.8 |
| 20260906012639 | 90 | 52 | 0.0 | 0.9 | 0.00 | 0.00 | 0.00 | 61 | 1009.7 |
| 20260906012129 | 91 | 72 | 0.9 | 1.7 | 0.00 | 0.00 | 0.00 | 61 | 1009.6 |
| 20260906011624 | 91 | 58 | 0.0 | 0.0 | 0.00 | 0.00 | 0.00 | 61 | 1009.6 |
| 20260906011118 | 91 | 49 | 0.0 | 0.0 | 0.00 | 0.00 | 0.00 | 60 | 1009.6 |
| 20260906010614 | 91 | 69 | 0.0 | 0.0 | 0.00 | 0.00 | 0.00 | 61 | 1009.6 |
| 20260906010110 | 90 | 69 | 2.6 | 5.2 | 0.00 | 0.00 | 0.00 | 61 | 1009.7 |
| 20260906005604 | 91 | 318 | 3.5 | 4.3 | 0.00 | 0.00 | 0.00 | 61 | 1009.3 |
| 20260906005103 | 91 | 335 | 1.7 | 1.7 | 0.00 | 0.00 | 0.00 | 61 | 1009.0 |
| 20260906004603 | 91 | 313 | 3.5 | 4.3 | 0.00 | 0.00 | 0.00 | 60 | 1009.1 |
| 20260906004057 | 91 | 323 | 2.6 | 2.6 | 0.00 | 0.00 | 0.00 | 60 | 1009.1 |
| 20260906003553 | 91 | 322 | 4.3 | 5.2 | 0.00 | 0.00 | 0.00 | 60 | 1009.3 |
| 20260906003049 | 91 | 315 | 2.6 | 2.6 | 0.00 | 0.00 | 0.00 | 60 | 1009.2 |
| 20260906002548 | 91 | 314 | 2.6 | 2.6 | 0.00 | 0.00 | 0.00 | 60 | 1009.3 |
| 20260906002043 | 92 | 338 | 1.7 | 2.6 | 0.00 | 0.00 | 0.00 | 59 | 1009.2 |
| 20260906001533 | 92 | 328 | 3.5 | 5.2 | 0.00 | 0.00 | 0.00 | 59 | 1009.2 |
| 20260906001027 | 92 | 303 | 2.6 | 4.3 | 0.00 | 0.00 | 0.00 | 58 | 1009.4 |
| 20260906000523 | 92 | 333 | 1.7 | 1.7 | 0.00 | 0.00 | 0.00 | 58 | 1009.5 |
| 20260906000018 | 93 | 307 | 3.5 | 5.2 | 0.00 | 0.00 | 0.00 | 58 | 1009.5 |
| 20260905235511 | 93 | 333 | 2.6 | 2.6 | 0.00 | 0.00 | 0.00 | 57 | 1009.7 |
| 20260905235007 | 93 | 320 | 2.6 | 2.6 | 0.00 | 0.00 | 0.00 | 57 | 1009.7 |
| 20260905234502 | 93 | 324 | 3.5 | 5.2 | 0.00 | 0.00 | 0.00 | 57 | 1009.6 |
| 20260905233956 | 93 | 344 | 2.6 | 2.6 | 0.00 | 0.00 | 0.00 | 57 | 1009.6 |
| 20260905233452 | 93 | 351 | 4.3 | 5.2 | 0.00 | 0.00 | 0.00 | 57 | 1009.5 |
| 20260905232950 | 93 | 352 | 0.9 | 1.7 | 0.00 | 0.00 | 0.00 | 57 | 1009.4 |
| 20260905232447 | 94 | 345 | 6.1 | 6.1 | 0.00 | 0.00 | 0.00 | 56 | 1009.4 |
| 20260905231943 | 94 | 298 | 2.6 | 4.3 | 0.00 | 0.00 | 0.00 | 56 | 1009.6 |
| 20260905231438 | 93 | 342 | 2.6 | 2.6 | 0.00 | 0.00 | 0.00 | 56 | 1009.5 |
| 20260905230934 | 93 | 323 | 4.3 | 5.2 | 0.00 | 0.00 | 0.00 | 56 | 1009.3 |
| 20260905230432 | 94 | 326 | 3.5 | 6.1 | 0.00 | 0.00 | 0.00 | 56 | 1009.4 |
| 20260905225925 | 94 | 310 | 4.3 | 5.2 | 0.00 | 0.00 | 0.00 | 56 | 1009.2 |
| 20260905225420 | 94 | 3 | 2.6 | 2.6 | 0.00 | 0.00 | 0.00 | 55 | 1009.1 |
| 20260905224915 | 95 | 321 | 6.1 | 7.0 | 0.00 | 0.00 | 0.00 | 54 | 1009.2 |
| 20260905224411 | 95 | 324 | 7.8 | 9.6 | 0.00 | 0.00 | 0.00 | 54 | 1009.4 |
| 20260905223905 | 95 | 332 | 4.3 | 5.2 | 0.00 | 0.00 | 0.00 | 53 | 1009.1 |
| 20260905223403 | 95 | 18 | 2.6 | 4.3 | 0.00 | 0.00 | 0.00 | 53 | 1009.1 |
| 20260905222858 | 95 | 10 | 4.3 | 5.2 | 0.00 | 0.00 | 0.00 | 54 | 1009.2 |
| 20260905222356 | 95 | 6 | 4.3 | 5.2 | 0.00 | 0.00 | 0.00 | 53 | 1009.2 |
| 20260905221852 | 95 | 337 | 1.7 | 1.7 | 0.00 | 0.00 | 0.00 | 52 | 1008.9 |
| 20260905221349 | 95 | 307 | 2.6 | 2.6 | 0.00 | 0.00 | 0.00 | 52 | 1009.0 |
| 20260905220839 | 95 | 282 | 2.6 | 4.3 | 0.00 | 0.00 | 0.00 | 52 | 1008.9 |
| 20260905220335 | 95 | 251 | 3.5 | 5.2 | 0.00 | 0.00 | 0.00 | 52 | 1009.1 |
| 20260905215834 | 95 | 279 | 5.2 | 6.1 | 0.00 | 0.00 | 0.00 | 51 | 1009.2 |
| 20260905215330 | 96 | 298 | 3.5 | 4.3 | 0.00 | 0.00 | 0.00 | 51 | 1009.3 |
| 20260905214826 | 96 | 359 | 1.7 | 2.6 | 0.00 | 0.00 | 0.00 | 50 | 1009.2 |
| 20260905214321 | 97 | 278 | 1.7 | 1.7 | 0.00 | 0.00 | 0.00 | 49 | 1008.9 |
| 20260905213816 | 97 | 243 | 2.6 | 2.6 | 0.00 | 0.00 | 0.00 | 49 | 1009.2 |
| 20260905213313 | 97 | 228 | 2.6 | 5.2 | 0.00 | 0.00 | 0.00 | 49 | 1009.2 |
| 20260905212812 | 97 | 291 | 6.1 | 7.0 | 0.00 | 0.00 | 0.00 | 49 | 1009.0 |
| 20260905212307 | 99 | 296 | 4.3 | 6.1 | 0.00 | 0.00 | 0.00 | 48 | 1009.2 |
| 20260905211801 | 99 | 170 | 4.3 | 6.1 | 0.00 | 0.00 | 0.00 | 47 | 1009.1 |
| 20260905211256 | 100 | 242 | 4.3 | 5.2 | 0.00 | 0.00 | 0.00 | 45 | 1009.1 |
| 20260905210753 | 100 | 305 | 3.5 | 4.3 | 0.00 | 0.00 | 0.00 | 45 | 1009.0 |
| 20260905210253 | 100 | 301 | 3.5 | 5.2 | 0.00 | 0.00 | 0.00 | 44 | 1008.9 |
| 20260905205751 | 101 | 309 | 7.0 | 7.0 | 0.00 | 0.00 | 0.00 | 44 | 1009.1 |
| 20260905205246 | 100 | 12 | 1.7 | 2.6 | 0.00 | 0.00 | 0.00 | 44 | 1009.2 |
| 20260905204746 | 100 | 302 | 6.1 | 7.8 | 0.00 | 0.00 | 0.00 | 44 | 1009.8 |
| 20260905204242 | 100 | 330 | 5.2 | 7.0 | 0.00 | 0.00 | 0.00 | 43 | 1009.3 |
| 20260905203741 | 101 | 271 | 4.3 | 5.2 | 0.00 | 0.00 | 0.00 | 43 | 1009.5 |
| 20260905203237 | 101 | 4 | 6.1 | 7.0 | 0.00 | 0.00 | 0.00 | 43 | 1009.6 |
| 20260905202732 | 100 | 35 | 3.5 | 4.3 | 0.00 | 0.00 | 0.00 | 44 | 1009.7 |
| 20260905202227 | 100 | 312 | 4.3 | 5.2 | 0.00 | 0.00 | 0.00 | 44 | 1009.6 |
| 20260905201722 | 100 | 324 | 6.1 | 7.8 | 0.00 | 0.00 | 0.00 | 44 | 1009.6 |
| 20260905201217 | 100 | 295 | 4.3 | 6.1 | 0.00 | 0.00 | 0.00 | 43 | 1009.9 |
| 20260905200712 | 101 | 17 | 4.3 | 5.2 | 0.00 | 0.00 | 0.00 | 43 | 1009.7 |
| 20260905200208 | 102 | 341 | 4.3 | 6.1 | 0.00 | 0.00 | 0.00 | 43 | 1009.7 |
| 20260905195706 | 101 | 358 | 0.9 | 0.9 | 0.00 | 0.00 | 0.00 | 44 | 1009.9 |
| 20260905195201 | 101 | 20 | 4.3 | 5.2 | 0.00 | 0.00 | 0.00 | 44 | 1009.8 |
| 20260905194656 | 102 | 233 | 4.3 | 5.2 | 0.00 | 0.00 | 0.00 | 43 | 1010.0 |
| 20260905194155 | 102 | 336 | 4.3 | 5.2 | 0.00 | 0.00 | 0.00 | 44 | 1009.8 |
| 20260905193650 | 100 | 35 | 3.5 | 4.3 | 0.00 | 0.00 | 0.00 | 45 | 1010.1 |
| 20260905193145 | 100 | 330 | 3.5 | 4.3 | 0.00 | 0.00 | 0.00 | 45 | 1010.2 |
| 20260905192640 | 100 | 333 | 3.5 | 5.2 | 0.00 | 0.00 | 0.00 | 45 | 1010.1 |
| 20260905192137 | 100 | 241 | 5.2 | 7.8 | 0.00 | 0.00 | 0.00 | 44 | 1010.4 |
| 20260905191636 | 100 | 269 | 3.5 | 4.3 | 0.00 | 0.00 | 0.00 | 43 | 1010.5 |
| 20260905191134 | 100 | 40 | 1.7 | 2.6 | 0.00 | 0.00 | 0.00 | 44 | 1010.5 |
| 20260905190627 | 100 | 352 | 3.5 | 4.3 | 0.00 | 0.00 | 0.00 | 45 | 1010.6 |
| 20260905190127 | 100 | 17 | 8.7 | 8.7 | 0.00 | 0.00 | 0.00 | 45 | 1010.6 |
| 20260905185626 | 100 | 4 | 0.9 | 0.9 | 0.00 | 0.00 | 0.00 | 47 | 1010.7 |
| 20260905185120 | 100 | 42 | 0.0 | 0.9 | 0.00 | 0.00 | 0.00 | 46 | 1010.9 |
| 20260905184615 | 99 | 339 | 6.1 | 7.0 | 0.00 | 0.00 | 0.00 | 47 | 1010.9 |
| 20260905184114 | 100 | 351 | 3.5 | 4.3 | 0.00 | 0.00 | 0.00 | 47 | 1010.9 |
| 20260905183613 | 99 | 271 | 2.6 | 2.6 | 0.00 | 0.00 | 0.00 | 48 | 1010.9 |
| 20260905183109 | 100 | 322 | 6.1 | 7.0 | 0.00 | 0.00 | 0.00 | 47 | 1010.9 |
| 20260905182608 | 100 | 301 | 0.9 | 1.7 | 0.00 | 0.00 | 0.00 | 47 | 1011.1 |
| 20260905182102 | 100 | 249 | 7.0 | 7.8 | 0.00 | 0.00 | 0.00 | 47 | 1011.1 |
| 20260905181602 | 100 | 223 | 3.5 | 4.3 | 0.00 | 0.00 | 0.00 | 47 | 1011.2 |
| 20260905181101 | 99 | 352 | 2.6 | 2.6 | 0.00 | 0.00 | 0.00 | 49 | 1011.2 |
| 20260905180556 | 98 | 89 | 0.0 | 0.0 | 0.00 | 0.00 | 0.00 | 50 | 1011.4 |
| 20260905180052 | 98 | 349 | 6.1 | 7.0 | 0.00 | 0.00 | 0.00 | 50 | 1011.5 |
| 20260905175551 | 97 | 301 | 5.2 | 6.1 | 0.00 | 0.00 | 0.00 | 51 | 1011.6 |
| 20260905175047 | 97 | 326 | 4.3 | 6.1 | 0.00 | 0.00 | 0.00 | 52 | 1011.5 |
| 20260905174542 | 99 | 317 | 4.3 | 5.2 | 0.00 | 0.00 | 0.00 | 50 | 1011.5 |
| 20260905174037 | 98 | 149 | 1.7 | 1.7 | 0.00 | 0.00 | 0.00 | 52 | 1011.8 |
| 20260905173534 | 98 | 277 | 2.6 | 4.3 | 0.00 | 0.00 | 0.00 | 52 | 1011.7 |
| 20260905173029 | 97 | 302 | 3.5 | 4.3 | 0.00 | 0.00 | 0.00 | 52 | 1011.7 |
| 20260905172527 | 97 | 35 | 3.5 | 4.3 | 0.00 | 0.00 | 0.00 | 55 | 1011.8 |
| 20260905172023 | 98 | 339 | 4.3 | 6.1 | 0.00 | 0.00 | 0.00 | 54 | 1011.9 |
| 20260905171519 | 97 | 255 | 0.9 | 1.7 | 0.00 | 0.00 | 0.00 | 54 | 1011.8 |
| 20260905171015 | 97 | 232 | 2.6 | 2.6 | 0.00 | 0.00 | 0.00 | 55 | 1011.9 |
| 20260905170511 | 97 | 279 | 2.6 | 5.2 | 0.00 | 0.00 | 0.00 | 55 | 1011.8 |
| 20260905170007 | 97 | 347 | 2.6 | 2.6 | 0.00 | 0.00 | 0.00 | 56 | 1011.9 |
| 20260905165501 | 96 | 353 | 1.7 | 2.6 | 0.00 | 0.00 | 0.00 | 56 | 1012.1 |
| 20260905164955 | 95 | 269 | 4.3 | 5.2 | 0.00 | 0.00 | 0.00 | 57 | 1012.3 |
| 20260905164450 | 96 | 15 | 0.9 | 0.9 | 0.00 | 0.00 | 0.00 | 56 | 1012.0 |
| 20260905163944 | 95 | 58 | 0.0 | 0.0 | 0.00 | 0.00 | 0.00 | 56 | 1012.4 |
| 20260905163441 | 96 | 319 | 3.5 | 4.3 | 0.00 | 0.00 | 0.00 | 56 | 1012.4 |
| 20260905162937 | 96 | 42 | 6.1 | 7.8 | 0.00 | 0.00 | 0.00 | 56 | 1012.6 |
| 20260905162432 | 96 | 1 | 4.3 | 5.2 | 0.00 | 0.00 | 0.00 | 56 | 1012.9 |
| 20260905161927 | 95 | 34 | 1.7 | 1.7 | 0.00 | 0.00 | 0.00 | 56 | 1012.7 |
| 20260905161426 | 95 | 319 | 5.2 | 7.0 | 0.00 | 0.00 | 0.00 | 56 | 1012.8 |
| 20260905160924 | 95 | 323 | 1.7 | 1.7 | 0.00 | 0.00 | 0.00 | 57 | 1012.8 |
| 20260905160418 | 95 | 346 | 4.3 | 5.2 | 0.00 | 0.00 | 0.00 | 58 | 1012.7 |
| 20260905155913 | 94 | 331 | 5.2 | 6.1 | 0.00 | 0.00 | 0.00 | 59 | 1012.7 |
| 20260905155413 | 94 | 8 | 4.3 | 5.2 | 0.00 | 0.00 | 0.00 | 58 | 1012.7 |
| 20260905154911 | 94 | 308 | 2.6 | 4.3 | 0.00 | 0.00 | 0.00 | 59 | 1012.9 |
| 20260905154407 | 94 | 240 | 1.7 | 2.6 | 0.00 | 0.00 | 0.00 | 61 | 1012.9 |
| 20260905153903 | 94 | 308 | 2.6 | 2.6 | 0.00 | 0.00 | 0.00 | 61 | 1013.0 |
| 20260905153359 | 95 | 147 | 0.0 | 0.9 | 0.00 | 0.00 | 0.00 | 58 | 1012.8 |
| 20260905152858 | 93 | 76 | 0.0 | 0.0 | 0.00 | 0.00 | 0.00 | 60 | 1012.8 |
| 20260905152357 | 93 | 169 | 1.7 | 1.7 | 0.00 | 0.00 | 0.00 | 61 | 1012.7 |
| 20260905151853 | 93 | 121 | 1.7 | 1.7 | 0.00 | 0.00 | 0.00 | 61 | 1012.7 |
| 20260905151348 | 94 | 54 | 0.0 | 0.0 | 0.00 | 0.00 | 0.00 | 60 | 1012.8 |
| 20260905150843 | 93 | 78 | 0.0 | 0.9 | 0.00 | 0.00 | 0.00 | 60 | 1012.7 |
| 20260905150337 | 91 | 236 | 0.9 | 1.7 | 0.00 | 0.00 | 0.00 | 63 | 1012.8 |
| 20260905145834 | 91 | 262 | 0.9 | 1.7 | 0.00 | 0.00 | 0.00 | 63 | 1012.9 |
| 20260905145329 | 92 | 234 | 1.7 | 2.6 | 0.00 | 0.00 | 0.00 | 61 | 1012.7 |
| 20260905144828 | 91 | 47 | 0.0 | 0.0 | 0.00 | 0.00 | 0.00 | 64 | 1012.8 |
| 20260905144323 | 90 | 115 | 1.7 | 1.7 | 0.00 | 0.00 | 0.00 | 65 | 1012.9 |
| 20260905143822 | 91 | 209 | 2.6 | 2.6 | 0.00 | 0.00 | 0.00 | 63 | 1012.7 |
| 20260905143316 | 90 | 118 | 0.9 | 0.9 | 0.00 | 0.00 | 0.00 | 65 | 1012.6 |
| 20260905142816 | 90 | 236 | 0.9 | 0.9 | 0.00 | 0.00 | 0.00 | 65 | 1012.9 |
| 20260905142310 | 89 | 197 | 1.7 | 1.7 | 0.00 | 0.00 | 0.00 | 66 | 1012.9 |
| 20260905141806 | 89 | 167 | 1.7 | 1.7 | 0.00 | 0.00 | 0.00 | 66 | 1013.1 |
| 20260905141301 | 89 | 81 | 0.9 | 0.9 | 0.00 | 0.00 | 0.00 | 65 | 1013.0 |
| 20260905140757 | 89 | 162 | 0.9 | 1.7 | 0.00 | 0.00 | 0.00 | 65 | 1013.0 |
| 20260905140256 | 89 | 48 | 0.0 | 0.9 | 0.00 | 0.00 | 0.00 | 65 | 1013.0 |
| 20260905135755 | 89 | 330 | 0.0 | 0.9 | 0.00 | 0.00 | 0.00 | 65 | 1012.8 |
| 20260905135252 | 89 | 127 | 0.9 | 0.9 | 0.00 | 0.00 | 0.00 | 66 | 1013.1 |
| 20260905134751 | 87 | 290 | 0.9 | 0.9 | 0.00 | 0.00 | 0.00 | 69 | 1013.0 |
| 20260905134245 | 88 | 354 | 1.7 | 1.7 | 0.00 | 0.00 | 0.00 | 67 | 1013.1 |
| 20260905133739 | 88 | 332 | 0.9 | 0.9 | 0.00 | 0.00 | 0.00 | 66 | 1013.0 |
| 20260905133235 | 89 | 52 | 0.0 | 0.0 | 0.00 | 0.00 | 0.00 | 65 | 1013.2 |
| 20260905132734 | 88 | 302 | 0.0 | 0.0 | 0.00 | 0.00 | 0.00 | 66 | 1013.0 |
| 20260905132230 | 87 | 350 | 0.0 | 0.9 | 0.00 | 0.00 | 0.00 | 68 | 1013.1 |
| 20260905131724 | 86 | 204 | 0.9 | 0.9 | 0.00 | 0.00 | 0.00 | 69 | 1013.1 |
| 20260905131220 | 86 | 85 | 0.0 | 0.0 | 0.00 | 0.00 | 0.00 | 70 | 1013.2 |
| 20260905130714 | 86 | 111 | 0.9 | 0.9 | 0.00 | 0.00 | 0.00 | 71 | 1013.2 |
| 20260905130214 | 86 | 186 | 0.0 | 0.9 | 0.00 | 0.00 | 0.00 | 71 | 1013.2 |
| 20260905125709 | 85 | 103 | 0.0 | 0.9 | 0.00 | 0.00 | 0.00 | 72 | 1013.2 |
| 20260905125204 | 84 | 70 | 0.0 | 0.9 | 0.00 | 0.00 | 0.00 | 75 | 1013.1 |
| 20260905124700 | 84 | 185 | 0.9 | 0.9 | 0.00 | 0.00 | 0.00 | 76 | 1013.1 |
| 20260905124156 | 85 | 101 | 0.9 | 0.9 | 0.00 | 0.00 | 0.00 | 76 | 1012.9 |
| 20260905123650 | 85 | 212 | 0.9 | 0.9 | 0.00 | 0.00 | 0.00 | 73 | 1012.8 |
| 20260905123148 | 84 | 197 | 0.9 | 1.7 | 0.00 | 0.00 | 0.00 | 71 | 1013.0 |
| 20260905122647 | 84 | 80 | 0.0 | 0.0 | 0.00 | 0.00 | 0.00 | 72 | 1013.1 |
| 20260905122143 | 83 | 45 | 0.0 | 0.0 | 0.00 | 0.00 | 0.00 | 73 | 1013.0 |
| 20260905121643 | 82 | 52 | 0.0 | 0.0 | 0.00 | 0.00 | 0.00 | 75 | 1013.2 |
| 20260905121138 | 82 | 44 | 0.0 | 0.0 | 0.00 | 0.00 | 0.00 | 76 | 1013.0 |
| 20260905120637 | 81 | 258 | 0.0 | 0.9 | 0.00 | 0.00 | 0.00 | 77 | 1012.9 |
| 20260905120132 | 81 | 331 | 0.9 | 1.7 | 0.00 | 0.00 | 0.00 | 77 | 1013.0 |
| 20260905115632 | 81 | 343 | 0.9 | 0.9 | 0.00 | 0.00 | 0.00 | 77 | 1013.0 |
| 20260905115127 | 81 | 5 | 0.0 | 0.0 | 0.00 | 0.00 | 0.00 | 78 | 1012.9 |
| 20260905114626 | 81 | 12 | 0.9 | 0.9 | 0.00 | 0.00 | 0.00 | 78 | 1012.9 |
| 20260905114124 | 81 | 41 | 0.0 | 0.0 | 0.00 | 0.00 | 0.00 | 78 | 1012.3 |
| 20260905113614 | 81 | 38 | 0.0 | 0.0 | 0.00 | 0.00 | 0.00 | 78 | 1012.5 |